RH
30 23 26 27 28 28 32 39 45 65 72 75 78 74 74 76 76 76 76 79 79 68 73 75 59 50 54 52 59 54 51 31 20 34 47 44 41 42 57 55 46 42 54
30 27 27 24 30 27 27 26 41 59 70 78 76 73 73 72 70 81 81 85 81 77 82 80 77 62 46 56 64 69 69 62 35 14 16 27 51 45 31 40 48 41 56
32 34 37 21 28 29 26 28 39 52 67 79 80 74 70 67 65 80 89 90 86 86 86 87 84 71 55 61 67 69 68 70 67 58 28 40 48 61 61 60 55 38 16
36 34 34 20 24 28 27 30 39 52 69 81 81 75 72 69 72 85 94 96 96 92 96 97 96 88 76 69 68 65 62 69 79 75 67 42 32 35 33 25 25 12 9
34 32 28 20 20 26 30 30 36 55 71 74 72 70 67 69 80 89 97 96 86 85 96 97 95 82 79 80 79 73 70 81 87 88 85 83 76 64 51 50 40 12 8
30 32 27 20 20 26 30 29 32 57 73 71 66 70 66 68 75 70 72 75 79 85 88 89 85 86 87 85 82 82 79 90 95 89 89 86 86 80 73 70 56 34 12
26 26 26 22 21 25 30 27 27 51 78 72 82 71 66 74 46 56 61 81 89 95 84 78 87 73 66 74 80 76 76 86 96 91 86 80 73 69 66 70 75 63 34
26 25 27 23 21 23 26 30 26 42 74 82 78 67 68 43 42 46 58 81 93 90 88 93 94 92 85 83 78 62 56 63 69 69 61 47 38 40 36 45 60 63 61
28 28 29 24 22 22 22 31 30 36 65 78 75 65 56 44 41 45 60 82 77 85 85 91 97 95 86 79 85 83 72 67 64 45 38 37 32 25 28 60 55 29 49
26 32 32 27 22 21 20 27 33 29 41 63 79 73 65 60 46 42 46 61 72 74 83 97 94 88 86 88 73 80 84 80 83 81 70 76 73 68 55 41 21 41 45
26 28 36 28 24 19 19 25 37 36 42 68 85 84 77 62 48 47 46 48 47 58 76 87 96 90 78 68 65 61 56 50 53 54 58 67 70 72 74 73 60 59 51
26 26 35 30 26 20 22 26 38 40 38 51 77 81 81 66 53 49 44 42 41 44 57 75 84 100 87 84 78 73 68 69 75 74 75 70 48 40 54 71 78 78 73
21 26 27 31 32 24 24 29 32 33 38 42 67 76 82 70 59 55 54 53 47 43 48 57 88 90 96 88 87 87 96 93 88 92 94 86 83 68 54 43 46 47 52
20 23 26 34 35 32 28 27 32 28 29 43 60 76 78 71 64 59 57 57 57 52 49 48 75 92 99 98 94 92 96 97 100 100 93 92 94 92 90 85 85 85 83
24 23 27 33 36 38 31 33 37 40 46 48 57 71 73 73 67 62 60 62 63 61 60 55 51 64 84 90 96 94 94 99 96 99 94 98 96 93 88 97 86 92 94
15 32 30 29 31 41 42 39 44 56 56 54 62 76 78 77 74 70 67 68 69 70 69 67 62 57 51 55 83 96 97 97 98 95 98 95 98 94 88 85 88 91 93
21 50 34 30 45 42 45 47 50 55 59 66 68 73 83 89 87 83 81 78 74 75 76 75 74 67 66 63 50 49 67 83 91 96 87 98 92 96 87 82 88 90 96
18 30 46 36 39 54 58 64 64 63 66 68 65 78 96 85 73 78 82 86 84 80 83 87 85 85 76 69 68 62 60 57 56 67 71 81 97 99 92 85 84 85 81
16 33 56 66 79 76 76 70 77 74 68 65 70 74 79 72 90 75 53 58 77 80 83 84 79 87 87 89 84 78 68 62 66 69 62 51 52 71 86 97 96 87 92
19 30 44 75 74 77 86 81 73 84 81 82 92 94 74 98 88 64 59 70 55 52 62 78 100 91 87 93 99 98 97 96 89 78 74 69 61 48 69 64 91 89 81
42 40 100 99 88 71 90 82 99 87 88 88 84 87 97 93 96 92 89 65 66 84 79 58 67 82 94 98 99 98 99 100 94 93 87 78 77 71 57 45 45 52 56
42 45 97 69 75 96 96 75 88 97 95 93 96 92 95 92 97 87 78 98 96 81 77 65 59 88 92 96 95 91 98 97 98 91 73 79 84 81 80 71 52 53 62
41 41 42 66 98 94 98 97 75 98 95 100 92 100 82 90 96 100 97 98 95 80 70 70 48 56 66 76 100 95 100 92 93 78 88 82 85 84 82 82 85 67 55
45 42 42 43 55 79 94 88 100 100 88 86 85 87 99 100 85 89 90 94 88 75 86 64 48 45 45 55 69 90 93 95 100 98 98 97 100 98 92 82 85 86 80
57 49 46 45 46 62 100 100 88 84 93 97 95 96 99 87 97 100 89 79 79 81 84 78 85 69 52 47 75 100 98 95 81 100 95 97 97 100 94 91 83 87 89
74 70 54 49 48 54 87 71 81 94 99 87 94 99 98 91 94 96 77 83 96 88 91 90 89 73 67 64 56 76 92 97 99 99 94 97 98 97 100 91 85 84 94
Wind_Speed
16 13 10 11 11 13 13 12 12 12 12 12 13 13 12 11 10 10 10 11 12 13 12 13 14 15 15 16 15 16 17 17 16 15 15 16 17 17 15 13 13 13 15
17 13 9 12 12 12 12 12 13 13 11 13 13 12 11 10 9 9 11 13 13 14 13 13 14 16 17 16 16 16 15 16 17 16 16 16 17 15 14 12 11 11 12
18 15 11 14 14 14 12 13 13 12 12 13 12 11 10 9 9 10 12 13 14 14 14 14 14 16 17 17 17 16 15 15 16 17 16 16 18 16 14 11 10 10 11
19 18 14 14 15 14 11 13 13 13 14 13 11 9 9 9 11 12 11 10 14 16 18 18 16 16 17 17 16 15 14 15 16 16 17 16 15 14 12 10 9 9 10
21 20 17 16 16 15 13 13 13 14 14 13 11 8 8 10 12 13 13 7 2 2 15 22 18 17 17 16 15 15 15 16 15 16 16 16 14 15 13 12 11 9 10
24 21 21 18 16 14 13 14 13 14 15 14 13 10 9 10 11 9 6 5 5 10 10 14 17 17 17 16 14 13 14 15 14 14 13 12 11 11 10 10 10 9 10
24 21 22 20 17 14 13 14 14 15 16 14 12 13 11 12 12 11 10 11 14 14 16 16 17 19 15 14 13 10 11 15 15 12 10 8 7 8 8 8 7 8 9
22 22 24 21 18 15 13 14 15 16 16 14 14 13 13 13 12 11 11 14 17 17 14 13 14 15 18 14 11 10 10 9 9 10 9 8 7 7 8 8 7 6 6
20 22 26 22 20 16 14 16 16 17 17 16 16 13 13 12 13 13 14 15 12 13 12 13 14 16 17 13 11 11 11 10 7 8 9 8 8 8 9 8 7 6 7
23 24 27 24 21 18 15 18 17 16 15 14 14 13 13 14 14 13 13 13 11 10 9 11 9 11 11 11 10 8 9 10 11 9 9 9 8 8 8 8 8 8 8
28 26 29 27 22 21 15 18 19 16 16 17 18 18 17 17 17 15 13 12 10 8 9 8 8 11 12 11 11 9 9 9 9 8 7 8 7 8 8 8 8 8 7
35 30 30 31 25 24 19 19 22 21 20 21 20 20 19 19 17 14 10 8 7 7 7 6 5 11 12 12 11 11 10 9 11 8 8 8 9 9 8 9 8 7 6
34 35 32 33 29 27 22 22 23 23 22 22 21 20 20 18 15 11 8 7 6 5 5 6 8 11 13 12 13 11 9 12 9 12 9 9 12 10 9 9 8 7 6
33 34 36 36 32 29 27 24 23 23 22 21 22 22 20 19 16 13 11 8 7 6 5 5 8 10 14 11 11 13 14 15 16 14 10 8 7 5 1 7 4 1 3
33 33 36 36 33 31 27 25 23 22 22 24 24 25 23 22 18 16 14 12 10 8 6 6 7 8 9 8 4 4 5 13 13 12 9 7 3 4 6 3 5 7 7
35 36 37 36 33 33 30 28 25 27 26 26 25 25 25 24 20 17 16 15 13 11 9 8 8 9 8 7 7 7 6 6 5 5 3 3 7 8 6 4 2 4 5
35 38 38 37 36 34 31 29 28 29 29 28 28 28 27 26 24 22 20 19 18 17 15 13 11 9 9 9 9 9 9 10 7 9 8 9 9 7 7 7 5 2 4
38 38 39 36 36 35 33 31 29 29 29 28 27 27 27 25 22 22 22 22 23 22 20 18 16 14 13 11 11 11 11 11 10 11 12 13 10 10 11 9 8 9 8
40 40 41 40 40 38 37 33 29 28 27 26 24 27 27 25 23 23 21 26 25 26 24 22 21 19 18 15 14 13 13 13 12 12 11 11 12 13 13 9 11 8 12
40 45 40 41 36 41 38 36 34 32 31 30 30 29 25 24 25 21 20 20 23 25 25 25 22 24 20 19 15 16 17 16 17 16 17 15 13 14 17 16 19 17 17
38 38 44 44 49 40 41 38 38 39 36 33 32 31 27 26 23 21 21 23 19 21 21 22 26 28 27 23 20 18 18 22 25 21 19 19 18 18 18 19 19 20 19
33 40 46 49 48 48 46 44 41 38 37 32 29 30 30 26 23 21 21 19 23 12 17 19 20 21 23 28 23 25 26 25 26 22 20 20 22 22 21 20 20 21 21
35 35 39 45 44 41 59 39 41 41 38 34 31 35 31 26 22 19 21 22 22 15 16 19 20 24 29 26 27 30 28 30 26 25 24 24 21 23 24 24 22 22 23
40 39 36 36 42 44 50 39 39 39 33 40 34 38 29 24 26 24 25 26 25 21 22 18 15 20 24 26 27 28 29 27 26 25 23 24 27 27 25 23 24 26 26
40 43 41 40 39 46 40 35 42 39 41 29 35 30 32 29 29 30 25 22 25 24 20 21 19 19 20 22 28 33 34 32 29 29 28 29 30 30 30 28 27 26 28
39 38 41 42 40 40 39 45 42 38 37 42 39 30 32 35 30 26 25 25 24 27 27 24 23 22 21 21 24 28 33 32 29 32 30 28 32 33 34 31 26 26 29
Wind_Direction
181 169 169 165 151 152 160 168 173 170 160 148 143 143 141 139 141 146 148 152 147 140 139 137 138 138 138 134 132 127 121 121 123 124 124 120 117 119 113 112 104 103 101
182 170 164 171 160 153 155 163 170 171 162 151 146 144 142 140 143 149 157 155 150 149 142 139 138 137 139 137 134 128 126 125 124 121 117 121 119 123 119 110 102 112 114
182 179 176 177 169 160 158 160 166 168 163 158 155 147 138 136 141 146 156 161 160 155 150 144 141 142 142 141 139 139 136 130 125 121 119 119 115 115 116 114 109 109 112
191 183 184 182 175 168 164 164 163 167 164 161 157 149 138 137 137 136 160 166 162 164 154 148 145 143 146 145 145 145 141 130 124 122 118 116 120 121 116 112 111 106 112
198 190 186 183 176 174 171 167 168 166 162 158 154 153 148 136 133 140 148 133 171 116 171 145 140 145 145 145 150 152 148 136 138 130 124 118 116 115 109 107 101 108 111
193 189 186 184 179 178 176 169 167 166 163 157 156 151 144 142 139 145 163 180 121 98 139 163 140 139 143 147 153 156 150 141 149 145 133 126 120 115 107 104 101 94 104
193 195 190 187 183 180 180 173 168 168 169 169 158 149 146 140 136 134 132 113 131 129 122 110 155 159 154 153 154 155 157 156 158 158 154 148 143 134 128 121 106 97 91
199 200 193 187 185 181 184 182 173 172 176 173 160 155 148 139 129 125 127 127 121 126 125 151 165 179 175 175 158 158 171 166 172 170 168 166 163 156 150 145 143 125 111
192 196 195 191 188 184 186 190 185 176 177 176 166 158 151 142 135 126 123 133 122 129 131 142 162 172 163 166 169 161 160 150 151 174 167 157 157 145 144 141 146 150 128
194 195 199 195 195 191 193 195 189 187 181 175 169 157 158 147 138 129 127 129 129 126 141 152 166 159 172 184 180 177 171 163 150 150 153 144 146 148 148 143 142 140 143
202 200 199 199 200 200 199 194 188 184 182 176 175 174 174 160 150 147 147 150 140 122 109 126 151 172 156 163 162 178 169 160 165 176 184 178 180 172 158 150 152 153 152
206 203 200 201 203 205 197 193 189 189 187 186 186 183 173 168 163 165 161 149 132 130 132 121 131 162 162 154 158 162 154 151 149 155 153 156 171 173 173 166 157 157 160
210 210 206 204 204 204 199 192 195 195 194 189 190 189 178 176 174 174 176 164 151 138 132 123 106 151 159 159 160 154 153 163 161 151 150 156 156 146 146 151 150 152 161
210 211 208 204 205 204 202 199 198 202 199 192 191 189 191 190 187 187 193 196 184 169 157 142 131 126 152 156 191 201 204 217 178 171 166 188 150 140 138 156 137 208 199
211 212 208 206 206 209 207 204 200 202 197 197 196 194 197 199 203 200 199 205 209 203 191 172 164 167 173 174 169 192 196 219 226 226 258 260 186 208 242 220 245 254 235
214 211 208 207 207 209 207 205 200 200 201 201 200 201 203 207 207 212 209 211 215 216 218 213 199 192 192 196 192 196 196 196 199 222 237 244 221 221 219 200 288 351 8
216 209 210 210 207 211 212 207 206 205 207 207 208 208 210 214 218 214 212 215 219 221 221 224 225 221 215 210 215 221 223 231 236 242 226 268 250 242 223 220 260 304 26
216 214 208 214 210 208 210 211 206 207 211 215 218 220 217 228 238 225 227 223 224 223 222 224 225 226 228 230 228 232 236 241 238 244 244 261 230 233 245 244 235 237 268
214 212 209 208 208 209 208 208 209 209 214 220 221 223 223 232 235 247 249 232 233 235 228 229 230 231 229 227 235 243 246 252 258 258 257 249 239 244 258 257 246 246 262
211 209 213 210 204 214 210 210 208 209 210 213 215 225 241 227 240 240 250 248 241 238 239 232 234 241 241 236 242 250 255 254 253 257 261 257 249 245 230 247 248 257 262
206 212 212 210 216 210 209 208 204 212 212 218 222 229 231 231 230 241 253 264 249 242 242 240 235 240 237 245 230 235 247 253 252 250 252 254 256 253 251 254 253 257 254
212 209 209 216 217 206 215 217 212 214 219 219 221 231 232 236 230 229 251 262 265 246 245 250 246 231 236 241 240 246 242 247 262 266 261 254 256 257 256 256 260 263 262
217 218 220 214 216 221 219 208 224 215 213 207 225 233 248 233 222 231 241 256 260 270 266 253 246 243 243 245 232 246 242 257 256 261 265 265 259 258 260 260 259 259 262
217 220 220 222 220 219 214 215 227 213 227 228 228 237 227 231 242 235 244 248 262 267 269 262 260 253 254 249 251 249 244 248 253 255 258 267 268 266 264 258 259 260 261
220 217 220 221 219 220 220 220 222 222 218 241 227 227 228 235 228 238 243 252 259 258 259 252 265 268 265 258 244 243 247 251 254 256 263 260 265 271 268 265 268 259 257
228 221 218 219 219 220 221 226 229 223 234 232 236 226 233 234 232 234 243 253 251 267 268 255 262 275 271 270 264 249 247 245 251 255 257 259 258 268 271 271 268 262 259